TimeMDT,TemperatureF,Dew PointF,Humidity,Sea Level PressureIn,VisibilityMPH,Wind Direction,Wind SpeedMPH,Gust SpeedMPH,PrecipitationIn,Events,Conditions,WindDirDegrees,DateUTC
12:52 AM,43.0,28.9,58,30.12,10.0,Calm,Calm,-,N/A,,Clear,0,2012-10-01 06:52:00
1:52 AM,37.0,28.0,70,30.15,10.0,WNW,5.8,-,N/A,,Clear,300,2012-10-01 07:52:00
2:52 AM,39.0,28.9,67,30.13,10.0,Calm,Calm,-,N/A,,Clear,0,2012-10-01 08:52:00
3:52 AM,39.0,28.9,67,30.13,10.0,NNE,5.8,-,N/A,,Clear,30,2012-10-01 09:52:00
4:52 AM,30.0,25.0,82,30.19,10.0,SSE,4.6,-,N/A,,Clear,160,2012-10-01 10:52:00
5:52 AM,33.1,26.1,75,30.19,10.0,West,3.5,-,N/A,,Mostly Cloudy,270,2012-10-01 11:52:00
6:52 AM,30.9,25.0,79,30.27,10.0,WSW,3.5,-,N/A,,Clear,240,2012-10-01 12:52:00
7:52 AM,32.0,25.0,75,30.31,10.0,Calm,Calm,-,N/A,,Clear,0,2012-10-01 13:52:00
8:52 AM,46.0,30.0,54,30.26,10.0,WSW,3.5,-,N/A,,Clear,250,2012-10-01 14:52:00
9:52 AM,57.0,30.9,37,30.24,10.0,Variable,4.6,-,N/A,,Mostly Cloudy,0,2012-10-01 15:52:00
10:52 AM,57.9,32.0,37,30.22,10.0,Variable,3.5,-,N/A,,Clear,0,2012-10-01 16:52:00
11:52 AM,63.0,32.0,31,30.16,10.0,West,5.8,-,N/A,,Clear,260,2012-10-01 17:52:00
12:52 PM,63.0,30.0,29,30.17,10.0,Calm,Calm,-,N/A,,Clear,0,2012-10-01 18:52:00
1:52 PM,68.0,28.0,22,30.13,10.0,North,9.2,-,N/A,,Clear,350,2012-10-01 19:52:00
2:52 PM,69.1,26.1,20,30.10,10.0,NNE,10.4,16.1,N/A,,Clear,30,2012-10-01 20:52:00
3:52 PM,70.0,26.1,19,30.07,10.0,North,5.8,23.0,N/A,,Clear,360,2012-10-01 21:52:00
4:52 PM,-9999,-9999,N/A,30.25,-9999.0,North,-9999.0,-,N/A,,Unknown,0,2012-10-01 22:52:00
5:52 PM,-9999,-9999,N/A,30.25,-9999.0,North,-9999.0,-,N/A,,Unknown,0,2012-10-01 23:52:00
6:52 PM,57.9,27.0,31,30.14,10.0,South,4.6,-,N/A,,Unknown,190,2012-10-02 00:52:00
7:52 PM,53.1,34.0,48,30.18,10.0,ESE,8.1,-,N/A,,Clear,110,2012-10-02 01:52:00
8:52 PM,51.8,33.8,50,30.27,10.0,East,11.5,-,N/A,,Clear,100,2012-10-02 02:52:00
9:52 PM,46.9,32.0,56,30.11,10.0,SSW,4.6,-,N/A,,Clear,200,2012-10-02 03:52:00
10:52 PM,42.1,30.9,65,30.12,10.0,WSW,5.8,-,N/A,,Clear,250,2012-10-02 04:52:00
11:52 PM,37.9,30.0,73,30.12,10.0,West,6.9,-,N/A,,Clear,260,2012-10-02 05:52:00